This demonstration page uses our WeatherBlox Daily Observations layout. Learn more.

Left ArrowRight Arrow

38.20091, -84.87328

Hourly Observations for September 25, 2021

Temp ( °F °C ) Dew Point ( °F °C ) Humidity (%) Winds ( mph kmh ) Pressure ( in mb ) Visibility ( mi km ) Precip ( " mm )
12:53 am 00:53 Clear 54 12.2 51 10.6 90 90 Calm 30.04 1017 10 16 0.00 0.00
1:53 am 01:53 Clear 55 12.8 51 10.6 87 87 Calm 30.04 1017 10 16 0.00 0.00
2:53 am 02:53 Clear 55 12.8 51 10.6 87 87 Calm 30.04 1017 10 16 0.00 0.00
3:53 am 03:53 Clear 54 12.2 51 10.6 90 90 S 3 6 30.03 1017 10 16 0.00 0.00
4:53 am 04:53 Clear 54 12.2 50 10 87 87 S 5 7 30.03 1017 10 16 0.00 0.00
5:53 am 05:53 Clear 55 12.8 50 10 83 83 SSW 6 9 30.02 1017 10 16 0.00 0.00
6:53 am 06:53 Clear 56 13.3 49 9.4 77 77 WSW 6 9 30.05 1018 10 16 0.00 0.00
7:53 am 07:53 Sunny 56 13.3 51 10.6 84 84 WSW 3 6 30.08 1019 10 16 0.00 0.00
8:53 am 08:53 Mostly Cloudy 58 14.4 52 11.1 81 81 SW 5 7 30.08 1019 10 16 0.00 0.00
9:53 am 09:53 Cloudy 58 14.4 54 12.2 87 87 SSW 7 11 30.08 1019 10 16 0.00 0.00
10:53 am 10:53 Mostly Cloudy 58 14.4 55 12.8 90 90 SSW 5 7 30.08 1019 10 16 0.01 0.25
11:53 am 11:53 Partly Cloudy 61 16.1 57 13.9 87 87 SW 8 13 30.09 1019 10 16 0.00 0.00
12:46 pm 12:46 Mostly Cloudy 64 17.8 57 13.9 78 78 VRB 7 11 30.08 1019 10 16 0.00 0.00
12:53 pm 12:53 Mostly Cloudy 64 17.8 57 13.9 78 78 W 5 7 30.09 1019 10 16 0.00 0.00
1:53 pm 13:53 Mostly Cloudy 67 19.4 56 13.3 68 68 W 10 17 30.08 1019 10 16 0.00 0.00
2:02 pm 14:02 Partly Cloudy 69 20.6 56 13.3 63 63 WSW 10 17 30.07 1018 10 16 0.00 0.00
2:53 pm 14:53 Mostly Sunny 70 21.1 54 12.2 57 57 W 8 13 30.05 1018 10 16 0.00 0.00
3:53 pm 15:53 Sunny 71 21.7 50 10 47 47 W 9 15 30.04 1017 10 16 0.00 0.00
4:53 pm 16:53 Partly Cloudy 69 20.6 50 10 51 51 W 7 11 30.04 1017 10 16 0.00 0.00
5:53 pm 17:53 Mostly Sunny 70 21.1 46 7.8 42 42 W 6 9 30.04 1017 10 16 0.00 0.00
6:53 pm 18:53 Sunny 67 19.4 45 7.2 45 45 W 6 9 30.05 1018 10 16 0.00 0.00
7:53 pm 19:53 Clear 58 14.4 50 10 75 75 Calm 30.06 1018 10 16 0.00 0.00
8:53 pm 20:53 Clear 55 12.8 50 10 83 83 Calm 30.07 1018 10 16 0.00 0.00
9:53 pm 21:53 Clear 53 11.7 49 9.4 86 86 Calm 30.08 1019 10 16 0.00 0.00
10:53 pm 22:53 Clear 52 11.1 49 9.4 89 89 Calm 30.09 1019 10 16 0.00 0.00
11:53 pm 23:53 Clear 50 10 48 8.9 93 93 Calm 30.10 1019 10 16 0.00 0.00

Powered by AerisWeather